Regional Weather Roundup
Issued by NWS

Home | Current Version | Previous Version | Graphics & Text | Print | Product List | Glossary On
Versions: 1 2 3 4 5 6 7 8 9 10 11 12 13 14 15 16 17 18 19 20 21 22 23 24 25 26 27 28 29 30 31 32 33 34 35 36 37 38 39 40 41 42 43 44 45 46 47 48 49 50
000
ASUS44 KMEG 041510
RWRTN
TENNESSEE HOURLY STATE WEATHER ROUNDUP
NATIONAL WEATHER SERVICE MEMPHIS TN
1000 AM CDT WED MAY 04 2016

TNZ002-004-019-021-049-052-054-088>092-041600-
WEST TENNESSEE

CITY           SKY/WX    TMP DP  RH WIND       PRES   REMARKS
MEMPHIS INTL   PTSUNNY   66  50  56 SW10      29.87F
NWS MEMPHIS      N/A     65 N/A N/A MISG        N/A
JACKSON        SUNNY     65  49  56 SW15      29.83F
DYERSBURG      SUNNY     66  50  55 SW13G20   29.80F
UNION CITY     SUNNY     66  50  55 SW10      29.77F
LEXINGTON      MOSUNNY   66  46  48 SW12      29.81F
$$

TNZ008-025-027-028-033-062-065-066-041600-
NORTH MIDDLE TENNESSEE

CITY           SKY/WX    TMP DP  RH WIND       PRES   REMARKS
NASHVILLE      MOSUNNY   65  46  50 W6G16     29.81F
CLARKSVILLE    MOSUNNY   64  47  53 SW14      29.77F
SMYRNA         SUNNY     65  47  52 W9        29.83F
COOKEVILLE     MOSUNNY   63  48  59 SW9       29.81F
CROSSVILLE     SUNNY     59  41  51 W12       29.82F
$$

TNZ061-075-076-078-094-096-097-041600-
SOUTH MIDDLE TENNESSEE

CITY           SKY/WX    TMP DP  RH WIND       PRES   REMARKS
FAYETTEVILLE   SUNNY     63  46  55 VRB7G16   29.85F
TULLAHOMA      MOSUNNY   61  46  59 W9        29.84F
WINCHESTER     MOSUNNY   61  46  59 VRB7      29.85F
MCMINNVILLE    MOSUNNY   61  46  59 W12       29.83F
COLUMBIA       SUNNY     64  52  63 SW8       29.81F
SHELBYVILLE    MOSUNNY   64  52  63 W8        29.84F
$$

TNZ017-018-042-046-047-041600-
NORTHEAST TENNESSEE

CITY           SKY/WX    TMP DP  RH WIND       PRES   REMARKS
TRI CITIES     CLOUDY    56  43  61 W6        29.78S
$$

TNZ012-013-036-069-073-074-041600-
CENTRAL EAST TENNESSEE

CITY           SKY/WX    TMP DP  RH WIND       PRES   REMARKS
KNOXVILLE      MOSUNNY   61  42  49 W8        29.80F
OAK RIDGE      PTSUNNY   63  42  46 VRB3      29.81F
GATLINBURG     PTSUNNY   57  43  58 W5        29.80F
MORRISTOWN     MOSUNNY   57  45  62 NW6       29.79F
$$

TNZ083-085-099-041600-
SOUTHEAST TENNESSEE

CITY           SKY/WX    TMP DP  RH WIND       PRES   REMARKS
CHATTANOOGA    MOSUNNY   64  43  46 NW8       29.83F
$$

SKY/WX REPORTED AS FAIR MEANS FEW OR NO CLOUDS BELOW
12 THOUSAND FEET.




USA.gov is the U.S. government's official web portal to all federal, state and local government web resources and services.